Terminal Aerodrome Forecast
Issued by NWS Austin/San Antonio, TX

Home | Current Version | Previous Version | Text Only | Print | Product List | Glossary On
Versions: 1 2 3 4 5 6 7 8 9 10 11 12 13 14 15 16 17 18 19 20 21 22 23 24 25 26
000
FTUS44 KEWX 011400 AAB
TAFSAT
TAF AMD
KSAT 011455Z 0115/0218 16006KT 1/4SM FG VV002
     FM011600 24009KT 4SM BR OVC002
     FM011800 31008KT P6SM OVC025
     FM012000 34013KT P6SM OVC050
     FM020000 01017G27KT P6SM BKN100=

USA.gov is the U.S. government's official web portal to all federal, state and local government web resources and services.